NOAA 16 DEB, 41076

Orbit data source: Space-Track

NOAA 16 DEB, 41076 is space debris in SSO originally from a launch on Thu, 21 Sep 2000 UTC launched from the Air Force Western Test Range (AFWTR). Debris objects in space refer to the collection of defunct objects orbiting the Earth. Examples of debris include non-operational satellites, rocket bodies, and fragments generated from explosions, collisions, or faulty payload assembly.

Loading next visibility...
Identifier
41076, 2000-055AK
Orbit
SSO
Country
Flag of USUS
Related business
Manufacturer
Unknown
Mission
Spacecraft
Bus & Motor
Unknown
Mass
Unknown
Launch date (UTC)
2000-09-21 (25 years ago)
Launch vehicle
Unknown
Launch site
Air Force Western Test Range (AFWTR)
Object type
Payload
Rocket body
Debris
Shape & HBR
Unknown shape, 0.1 m
Radar Cross Section
Small (<0.1 m²)

Expand to show TLE details & history
Last TLE update: 1 day ago

TLE from 1 day ago
0 NOAA 16 DEB
1 41076U 00055AK  25340.26033010  .00109048  00000-0  36234-2 0  9999
2 41076  99.1850 174.6455 0060773  47.8477 312.7898 15.28964323536368
Epoch: 2025-12-06T06:14Z
TLE epoch observation values (Epoch: 2025-12-06T06:14:52.520Z)
Latitude
0.00002°
Longitude
5.63604°
Altitude
453.775 km
Speed
7.656 km/s
True Right ascension
11h 38m 34s
True Declination
0° 00' 00"
Sunlit
Object was in daylight at epoch
Visualization orbit readout
Latitude
Unknown
Longitude
Unknown
Altitude
Unknown
Speed
Unknown
Apparent Right ascension
Unknown
Apparent Declination
Unknown
Sunlit
N/A
Visualization observer readout
Local Sidereal Time
15:01:50
Azimuth
Unknown
Elevation
Unknown
Doppler factor
Unknown
Orbital elements
Apogee altitude
517.6 km
Perigee altitude
434.292 km
Semi-major axis
6,854.083 km
Eccentricity
0.00608
Inclination
99.185°
RAAN
174.6455°
Arg. of periapsis
47.8477°
True anomaly
312.2761°
Mean anomaly
312.7898°
Eccentric anomaly
312.53321°
Mean motion
3.82489 °/min
Orbital period
94.12 mins
BSTAR
0.0036234
Loading maneuver chart data...
Computing Atmospheric mass density...
Loading historical data...
Loading historical data...
Loading historical data...
Loading historical data...
Loading historical data...
Loading historical data...
Loading historical data...

Documentation

Showing up to 5 results
|